Robusta 1B
1 42792U 17036AD 18102.55565635 .00001724 00000-0 78873-4 0 9994
2 42792 097.4079 163.5072 0010056 313.4239 046.6160 15.21841861044540
D-SAT
1 42794U 17036AF 18102.60441054 .00000352 00000-0 35965-4 0 9991
2 42794 097.5992 159.7148 0128265 139.9662 221.1098 14.90821860043957
BIRD-J
1 42820U 98067MU 18102.06638733 .00026713 00000-0 27169-3 0 9991
2 42820 051.6368 336.6753 0002249 251.4515 108.6236 15.64958829043516
BIRD-G
1 42821U 98067MV 18102.09923508 .00025255 00000-0 26108-3 0 9994
2 42821 51.6368 336.8955 0002156 256.4318 103.6437 15.64579780 43474
BIRD-M
1 42822U 98067MW 18102.60038725 .00023278 00000-0 23935-3 0 9998
2 42822 051.6369 334.2449 0002151 259.0012 101.0741 15.64768445043570
BIRD-B
1 42823U 98067MX 18102.08875288 .00026641 00000-0 27250-3 0 9995
2 42823 051.6376 336.8420 0004242 294.5437 065.5115 15.64810321043495
BIRD-N
1 42824U 98067MY 18102.10552240 .00026297 00000-0 27067-3 0 9992
2 42824 51.6381 336.9664 0004156 295.1157 64.9407 15.64660189 43462
TechnoSat
1 42829U 17042E 18102.78856266 .00000171 00000-0 22859-4 0 9998
2 42829 97.6021 7.5865 0015690 60.1447 300.1329 14.90794097 40592
TOMSK-TPU 120
1 42910U 98067MZ 18102.80301244 .00018401 00000-0 20971-3 0 9996
2 42910 51.6366 336.3342 0005166 325.8140 34.2521 15.62290692 37155
TANYUSHA 1
1 42911U 98067NA 18102.82206650 .00020462 00000-0 22628-3 0 9995
2 42911 51.6375 335.7440 0004651 319.3660 40.6987 15.62990522 37146
TANYUSHA 2
1 42912U 98067NB 18102.73936425 .00019787 00000-0 22293-3 0 9992
2 42912 51.6381 336.6579 0004125 335.0203 25.0591 15.62536811 37146
SFERA 2
1 42913U 98067NC 18102.63264364 .00039374 00000-0 35499-3 0 9994
2 42913 051.6356 332.9331 0002211 334.5455 025.5432 15.67761912037181
TNS 0-2
1 42914U 98067ND 18102.77544401 .00017511 00000-0 20166-3 0 9997
2 42914 51.6377 336.9314 0004140 327.9069 32.1672 15.62064827 37131
QIKCOM-1
1 42983U 98067NF 18102.71797656 .00004361 00000-0 68898-4 0 9993
2 42983 51.6438 343.8569 0003024 321.2666 141.4605 15.55791285 26027
AO-91
1 43017U 17073E 18102.54573364 .00000654 00000-0 56240-4 0 9998
2 43017 097.7042 036.4323 0261307 125.1046 237.4966 14.77969619021419
EcAMSat
1 43019U 98067NG 18102.86902307 .00006834 00000-0 10184-3 0 9992
2 43019 51.6409 342.8351 0004337 290.1099 69.9426 15.56366732108376
PICSAT
1 43132U 18004X 18102.71706112 .00001806 00000-0 81117-4 0 9990
2 43132 97.5405 165.2040 0009173 336.6090 23.4727 15.22453568 13752
AO-92
1 43137U 18004AC 18102.77495268 .00001425 00000-0 64485-4 0 9994
2 43137 97.5403 165.2781 0008777 338.9697 21.1176 15.22558445 13757
TianYi 2
1 43155U 18008A 18102.78814358 .00000440 00000-0 30576-4 0 9994
2 43155 97.5278 178.3645 0018551 15.4810 132.9517 15.10438493 12617
TianYi 6
1 43158U 18008D 18102.83206779 .00001191 00000-0 77859-4 0 9994
2 43158 97.5284 178.3094 0014666 9.6951 128.4339 15.09613690 12590
S-Net G
1 43186U 18014G 18102.82645491 .00000390 00000-0 39470-4 0 9996
2 43186 97.7272 12.1270 0011677 15.5581 344.6010 14.96414366 10540
S-Net H
1 43187U 18014H 18097.34323736 .00002913 00000-0 26190-3 0 9999
2 43187 97.7522 6.6981 0007420 32.0110 328.1770 14.96432776 9722
S-Net J
1 43188U 18014J 18102.69264057 .00000405 00000-0 40865-4 0 9995
2 43188 97.7286 11.9970 0011473 17.7157 342.4487 14.96416065 10528
S-Net K
1 43189U 18014K 18102.82641836 .00000462 00000-0 45836-4 0 9991
2 43189 97.7260 12.1243 0011080 16.9303 343.2266 14.96415980 9094
FMN 1
1 43192U 18015A 18102.78137412 .00002484 00000-0 10969-3 0 9995
2 43192 97.3449 233.0722 0018095 18.5087 341.6810 15.22523258 10568
Shaonian Xing
1 43199U 18015H 18102.60529360 .00001805 00000-0 78317-4 0 9998
2 43199 097.3228 232.8018 0019009 031.7545 328.4843 15.23466843010552
/EX
1
0
I am pleased to announce that AMSAT's request to re-distribute JSpOC
Keplerian elements from SpaceTrack has been approved for the period
April 1, 2018 to April 1, 2019. Our USSTRATCOM ODR (Orbital Data Request)
to distribute the AMSAT-NA TLEs was approved on March 27, 2018.
Thanks to JSpOC, Perry Klein, W3PK and Paul Williamson, KB5MU for their
help in this process.
We are "good to go" for another year.
On another note, sadly, the PICSAT team has announced today that PICSAT
is no longer operational. But, I will continue to carry PICSAT TLEs for
now.(Remember AO-07?)
1
0
SB KEPS @ AMSAT $ORB18095.N
2Line Orbital Elements 18095.AMSAT
HR AMSAT ORBITAL ELEMENTS FOR AMATEUR SATELLITES IN NASA FORMAT
FROM WA5QGD FORT WORTH,TX April 5, 2018
BID: ORB18095.N
DECODE 2-LINE ELSETS WITH THE FOLLOWING KEY:
1 AAAAAU 00 0 0 BBBBB.BBBBBBBB .CCCCCCCC 00000-0 00000-0 0 DDDZ
2 AAAAA EEE.EEEE FFF.FFFF GGGGGGG HHH.HHHH III.IIII JJ.JJJJJJJJKKKKKZ
KEY: A-CATALOGNUM B-EPOCHTIME C-DECAY D-ELSETNUM E-INCLINATION F-RAAN
G-ECCENTRICITY H-ARGPERIGEE I-MNANOM J-MNMOTION K-ORBITNUM Z-CHECKSUM
TO ALL RADIO AMATEURS BT
AO-07
1 07530U 74089B 18095.48525535 -.00000034 00000-0 62811-4 0 9993
2 07530 101.6793 063.9190 0012431 114.9499 355.9194 12.53631823985259
UO-11
1 14781U 84021B 18095.53514519 .00000052 00000-0 12582-4 0 9991
2 14781 097.6582 134.8153 0007588 330.6045 029.4742 14.82992309812673
LO-19
1 20442U 90005G 18095.80014485 .00000022 00000-0 24194-4 0 9997
2 20442 98.6048 34.7591 0011983 9.6593 350.4819 14.32891414473520
HUBBLE
1 20580U 90037B 18095.56331181 .00000458 00000-0 17109-4 0 9994
2 20580 028.4689 235.1827 0002940 078.6313 000.1254 15.09010541334407
MET-2/21
1 22782U 93055A 18095.66070667 -.00000016 00000-0 -27375-4 0 9991
2 22782 82.5491 151.4950 0021547 333.6904 186.7682 13.83808105242142
AO-27
1 22825U 93061C 18095.45369321 .00000003 00000-0 19150-4 0 9997
2 22825 098.8560 070.2790 0008082 191.6777 168.4218 14.30026023278905
IO-26
1 22826U 93061D 18095.41739555 .00000005 00000-0 19459-4 0 9998
2 22826 98.8500 70.2890 0008788 181.7907 178.3245 14.30357203279356
FO-29
1 24278U 96046B 18095.54128885 -.00000052 00000-0 -13833-4 0 9993
2 24278 098.5239 304.2802 0349491 299.5101 057.1609 13.53082557068165
NOAA-15
1 25338U 98030A 18095.49200908 .00000023 00000-0 28544-4 0 9998
2 25338 98.7743 111.8594 0011635 80.2508 279.9985 14.25844805 34668
GO-32
1 25397U 98043D 18095.78159693 -.00000007 00000-0 16054-4 0 9999
2 25397 98.6440 37.4422 0000764 168.6742 191.4454 14.23642725 25429
ISS
1 25544U 98067A 18095.88148157 .00002236 00000-0 40882-4 0 9994
2 25544 51.6441 19.1717 0001462 306.4114 165.1116 15.54200477107274
NO-44
1 26931U 01043C 18095.64196275 -.00000038 00000-0 17137-4 0 9997
2 26931 67.0518 56.5963 0006883 282.7275 77.3057 14.30499462862177
SO-50
1 27607U 02058C 18095.07790378 -.00000005 00000-0 20022-4 0 9997
2 27607 064.5552 313.5030 0056820 345.3013 014.6434 14.75435635822047
CO-55
1 27844U 03031E 18095.48981241 .00000039 00000-0 37530-4 0 9996
2 27844 098.6891 105.2121 0009064 216.3371 143.7192 14.22103701765828
CO-57
1 27848U 03031J 18095.49930892 .00000028 00000-0 32543-4 0 9994
2 27848 098.6979 105.5947 0008814 227.2794 132.7642 14.21708928765706
RS-22
1 27939U 03042A 18095.87758464 .00000086 00000-0 23917-4 0 9991
2 27939 97.9781 236.9285 0013367 23.8865 127.2237 14.66671495776216
NOAA-18
1 28654U 05018A 18095.56427512 -.00000025 00000-0 11571-4 0 9991
2 28654 099.1537 129.5094 0013710 335.1770 024.8739 14.12371429663438
CO-58
1 28895U 05043F 18095.66897515 .00000127 00000-0 33262-4 0 9994
2 28895 97.8982 250.1045 0015543 300.9129 59.0545 14.63526456663269
